Jamestown, NY

9:52 AM EST on February 20, 2017 (GMT -0500)
Chautauqua County-Jamestown

Weather History for KJHW - December, 2011

Change the Weather History Date:

Friday, December 30, 2011

  Actual Average Record
Temperature  
Mean Temperature 36 °F -  
Max Temperature 39 °F 33 °F 61 °F (1990)
Min Temperature 33 °F 17 °F -15 °F (1976)
Degree Days  
Heating Degree Days 29    
Moisture  
Dew Point 32 °F    
Average Humidity 80    
Maximum Humidity 93    
Minimum Humidity 70    
Precipitation  
Precipitation 0.00 in - - ()
Sea Level Pressure  
Sea Level Pressure 29.77 in    
Wind  
Wind Speed 8 mph (South)    
Max Wind Speed 14 mph    
Max Gust Speed 20 mph    
Visibility 10 miles    
Events      
Averages and records for this station are not official NWS values.
T = Trace of Precipitation, MM = Missing Value Source: NWS Daily Summary

Daily Weather History Graph

Daily Weather History Graph

Search for Another Location

Airport or City:

Trip Planner

Search our weather history database for the weather conditions in past years. The results will help you decide how hot, cold, wet, or windy it might be!

Date:

Astronomy

Dec. 30, 2011 Rise Set
Actual Time 7:45 AM EST 4:53 PM EST
Civil Twilight 7:13 AM EST 5:25 PM EST
Nautical Twilight 6:38 AM EST 6:00 PM EST
Astronomical Twilight 6:04 AM EST 6:34 PM EST
Moon 10:57 AM EST (12/30) 11:35 PM EST (12/30)
Length of Visible Light 10h 12m
Length of Day
9h 08m
Waxing Crescent, 35% of the Moon is Illuminated
Dec 30
Waxing Crescent
Jan 1
First Quarter
Jan 9
Full
Jan 16
Last Quarter
Jan 23
New

Hourly Weather History & Observations

Time (EST) Temp. Windchill Dew Point Humidity Pressure Visibility Wind Dir Wind Speed Gust Speed Precip Events Conditions
12:15 AM 33.8 °F 27.0 °F 30.2 °F 87% 29.74 in 10.0 mi South 8.1 mph - N/A   Overcast
12:35 AM 33.8 °F 25.8 °F 28.4 °F 81% 29.74 in 10.0 mi South 10.4 mph - N/A   Overcast
12:55 AM 33.8 °F 26.4 °F 30.2 °F 87% 29.74 in 10.0 mi South 9.2 mph - N/A   Overcast
1:15 AM 33.8 °F 27.0 °F 30.2 °F 87% 29.74 in 10.0 mi South 8.1 mph - N/A   Overcast
1:35 AM 33.8 °F 27.0 °F 28.4 °F 81% 29.74 in 10.0 mi South 8.1 mph - N/A   Overcast
1:55 AM 35.6 °F 28.6 °F 28.4 °F 75% 29.75 in 10.0 mi SSW 9.2 mph - N/A   Overcast
2:35 AM 35.6 °F 29.2 °F 28.4 °F 75% 29.76 in 10.0 mi South 8.1 mph - N/A   Overcast
2:55 AM 35.6 °F 29.2 °F 30.2 °F 81% 29.76 in 10.0 mi South 8.1 mph - N/A   Overcast
3:15 AM 35.6 °F 28.6 °F 30.2 °F 81% 29.77 in 10.0 mi SSW 9.2 mph - N/A   Overcast
3:55 AM 35.6 °F 29.2 °F 30.2 °F 81% 29.77 in 10.0 mi South 8.1 mph - N/A   Overcast
4:15 AM 35.6 °F 29.9 °F 30.2 °F 81% 29.78 in 10.0 mi SSW 6.9 mph - N/A   Overcast
4:35 AM 35.6 °F 29.2 °F 30.2 °F 81% 29.78 in 10.0 mi South 8.1 mph - N/A   Overcast
4:55 AM 35.6 °F 29.9 °F 30.2 °F 81% 29.79 in 10.0 mi South 6.9 mph - N/A   Overcast
5:15 AM 35.6 °F 29.9 °F 30.2 °F 81% 29.79 in 10.0 mi South 6.9 mph - N/A   Overcast
5:35 AM 35.6 °F 30.7 °F 30.2 °F 81% 29.79 in 10.0 mi South 5.8 mph - N/A   Overcast
5:55 AM 35.6 °F 30.7 °F 30.2 °F 81% 29.79 in 10.0 mi South 5.8 mph - N/A   Overcast
6:15 AM 35.6 °F 31.7 °F 30.2 °F 81% 29.80 in 10.0 mi South 4.6 mph - N/A   Overcast
6:35 AM 35.6 °F 31.7 °F 30.2 °F 81% 29.81 in 10.0 mi South 4.6 mph - N/A   Overcast
7:15 AM 33.8 °F - 30.2 °F 87% - 10.0 mi North - - N/A   Overcast
7:55 AM 35.6 °F 30.7 °F 30.2 °F 81% 29.83 in 10.0 mi South 5.8 mph - N/A   Overcast
8:35 AM 35.6 °F 29.9 °F 30.2 °F 81% 29.83 in 10.0 mi South 6.9 mph - N/A   Overcast
8:55 AM 35.6 °F 31.7 °F 30.2 °F 81% 29.84 in 10.0 mi South 4.6 mph - N/A   Overcast
9:15 AM 35.6 °F 29.9 °F 30.2 °F 81% 29.85 in 10.0 mi South 6.9 mph - N/A   Overcast
9:35 AM 35.6 °F 29.9 °F 30.2 °F 81% 29.85 in 10.0 mi South 6.9 mph - N/A   Overcast
10:15 AM 39.2 °F 33.6 °F 32.0 °F 75% 29.85 in 10.0 mi South 8.1 mph - N/A   Scattered Clouds
10:35 AM 39.2 °F 32.5 °F 32.0 °F 75% 29.85 in 10.0 mi SSW 10.4 mph - N/A   Overcast
10:55 AM 39.2 °F 32.5 °F 33.8 °F 81% 29.85 in 10.0 mi South 10.4 mph - N/A   Overcast
11:15 AM 39.2 °F 31.6 °F 30.2 °F 70% 29.84 in 10.0 mi South 12.7 mph 17.3 mph N/A   Mostly Cloudy
11:35 AM 39.2 °F 32.5 °F 30.2 °F 70% 29.83 in 10.0 mi South 10.4 mph - N/A   Mostly Cloudy
11:55 AM 39.2 °F 32.0 °F 30.2 °F 70% 29.83 in 10.0 mi South 11.5 mph 18.4 mph N/A   Overcast
12:15 PM 39.2 °F 32.0 °F 30.2 °F 70% 29.82 in 10.0 mi South 11.5 mph - N/A   Overcast
12:35 PM 39.2 °F 31.2 °F 30.2 °F 70% 29.81 in 10.0 mi South 13.8 mph 19.6 mph N/A   Overcast
12:55 PM 39.2 °F 32.0 °F 30.2 °F 70% 29.81 in 10.0 mi South 11.5 mph - N/A   Mostly Cloudy
1:15 PM 39.2 °F 32.5 °F 32.0 °F 75% 29.80 in 10.0 mi South 10.4 mph - N/A   Overcast
1:35 PM 39.2 °F 32.0 °F 30.2 °F 70% 29.79 in 10.0 mi South 11.5 mph - N/A   Overcast
2:15 PM 39.2 °F 32.5 °F 32.0 °F 75% 29.78 in 10.0 mi South 10.4 mph - N/A   Mostly Cloudy
2:35 PM 39.2 °F 32.0 °F 32.0 °F 75% 29.77 in 10.0 mi South 11.5 mph 17.3 mph N/A   Overcast
2:55 PM 39.2 °F 32.5 °F 33.8 °F 81% 29.77 in 10.0 mi South 10.4 mph - N/A   Overcast
3:15 PM 39.2 °F 32.5 °F 33.8 °F 81% 29.77 in 10.0 mi South 10.4 mph - N/A   Mostly Cloudy
3:35 PM 39.2 °F 33.6 °F 33.8 °F 81% 29.77 in 10.0 mi South 8.1 mph - N/A   Overcast
3:55 PM 39.2 °F 33.6 °F 33.8 °F 81% 29.77 in 10.0 mi South 8.1 mph - N/A   Overcast
4:15 PM 39.2 °F 35.0 °F 33.8 °F 81% 29.76 in 8.0 mi South 5.8 mph - N/A   Overcast
4:35 PM 37.4 °F 30.8 °F 33.8 °F 87% 29.77 in 10.0 mi South 9.2 mph - N/A   Mostly Cloudy
4:55 PM 37.4 °F 30.8 °F 35.6 °F 93% 29.77 in 10.0 mi South 9.2 mph - N/A   Mostly Cloudy
5:15 PM 39.2 °F 33.0 °F 33.8 °F 81% 29.76 in 10.0 mi South 9.2 mph - N/A   Scattered Clouds
5:35 PM 37.4 °F 30.8 °F 33.8 °F 87% 29.75 in 10.0 mi South 9.2 mph - N/A   Partly Cloudy
5:55 PM 37.4 °F 30.8 °F 33.8 °F 87% 29.75 in 10.0 mi South 9.2 mph - N/A   Clear
6:15 PM 39.2 °F 33.6 °F 33.8 °F 81% 29.74 in 10.0 mi South 8.1 mph - N/A   Clear
6:35 PM 39.2 °F 33.0 °F 33.8 °F 81% 29.73 in 10.0 mi SSE 9.2 mph - N/A   Clear
6:55 PM 39.2 °F 33.6 °F 33.8 °F 81% 29.73 in 10.0 mi SSE 8.1 mph - N/A   Partly Cloudy
7:15 PM 39.2 °F 32.5 °F 33.8 °F 81% 29.73 in 10.0 mi SSE 10.4 mph - N/A   Mostly Cloudy
7:35 PM 39.2 °F 33.0 °F 33.8 °F 81% 29.73 in 10.0 mi SSE 9.2 mph - N/A   Overcast
7:55 PM 39.2 °F 34.2 °F 33.8 °F 81% 29.74 in 10.0 mi South 6.9 mph - N/A   Overcast
8:15 PM 39.2 °F 34.2 °F 33.8 °F 81% 29.74 in 10.0 mi SSE 6.9 mph - N/A   Overcast
8:35 PM 39.2 °F 32.5 °F 33.8 °F 81% 29.72 in 10.0 mi ESE 10.4 mph - N/A   Overcast
8:55 PM 39.2 °F 34.2 °F 33.8 °F 81% 29.72 in 10.0 mi SSE 6.9 mph - N/A   Overcast
9:15 PM 39.2 °F 34.2 °F 33.8 °F 81% 29.71 in 10.0 mi SSE 6.9 mph - N/A   Overcast
9:35 PM 39.2 °F 33.0 °F 33.8 °F 81% 29.71 in 10.0 mi SSE 9.2 mph - N/A   Overcast
9:55 PM 39.2 °F 34.2 °F 33.8 °F 81% 29.70 in 10.0 mi SSE 6.9 mph - N/A   Overcast
10:15 PM 39.2 °F 34.2 °F 33.8 °F 81% 29.70 in 10.0 mi SSE 6.9 mph - N/A   Scattered Clouds
10:35 PM 39.2 °F 34.2 °F 32.0 °F 75% 29.70 in 10.0 mi SSE 6.9 mph - N/A   Mostly Cloudy
10:55 PM 39.2 °F 35.0 °F 32.0 °F 75% 29.70 in 10.0 mi South 5.8 mph - N/A   Overcast
11:15 PM 39.2 °F 32.5 °F 30.2 °F 70% 29.72 in 10.0 mi SW 10.4 mph - N/A   Overcast
11:55 PM 39.2 °F 33.0 °F 32.0 °F 75% 29.70 in 10.0 mi South 9.2 mph - N/A   Overcast